Home > Weather > Nadiad > Past weeks

Flag for India Past Weather in Nadiad, Gujarat, India — Yesterday and Last 2 Weeks

Now
99 °F

Scattered clouds.


Feels Like: 112 °F
Forecast: 84 / 99 °F
Wind: 8 mph from Southwest

Location: Ahmadabad Airport

Current Time: Jul 1, 2016 at 1:38:51 PM

Latest Report: Jul 1, 2016 at 1:00 PM


Visibility: 4 mi

Pressure: 29.50 "Hg

Humidity: 47%

Dew Point: 75 °F

Location of NadiadLocation

Past Weather in Nadiad — Graph

°F

Nadiad Temperature Yesterday

Maximum temperature yesterday: 97 °F (at 4:30 PM)
Minimum temperature yesterday: 84 °F (at 1:00 AM)
Average temperature yesterday: 89 °F

High & Low Weather Summary for the Past Weeks

 TemperatureHumidityPressure
High106 °F (Jun 16, 4:30 PM)84% (Jun 22, 5:30 PM)29.68 "Hg (Jun 22, 5:30 PM)
Low82 °F (Jun 26, 6:00 AM)26% (Jun 16, 4:30 PM)29.42 "Hg (Jun 20, 5:30 PM)
Average91 °F60%29.57 "Hg
* Reported Jun 16 12:30 PM — Jul 1 12:30 PM, Nadiad, Weather by CustomWeather, © 2016

Note: Actual official high and low records may vary slightly from our data, if they occured in-between our weather recording intervals... More about our weather records

Advertising

Nadiad Weather History for the Previous 24 Hours

Scroll right to see more
 ConditionsComfort  
Time TempWeatherWind HumidityBarometerVisibility
12:30 PM
Fri, Jul 1
97 °FScattered clouds.6 mph50%29.53 "Hg4 mi
12:00 PM95 °FScattered clouds.6 mph56%29.56 "Hg4 mi
11:30 AM95 °FScattered clouds.5 mph56%29.56 "Hg4 mi
11:00 AM93 °FScattered clouds.7 mph59%29.56 "Hg3 mi
10:30 AM91 °FScattered clouds.6 mph63%29.56 "Hg3 mi
10:00 AM90 °FScattered clouds.9 mph67%29.56 "Hg3 mi
9:30 AM90 °FScattered clouds.8 mph67%29.56 "Hg2 mi
9:00 AM88 °FScattered clouds.7 mph70%29.56 "Hg2 mi
8:30 AM86 °FScattered clouds.6 mph75%29.56 "Hg2 mi
8:00 AM86 °FScattered clouds.7 mph75%29.56 "Hg2 mi
7:30 AM84 °FScattered clouds.8 mph79%29.56 "Hg2 mi
7:00 AM84 °FPartly sunny.5 mph79%29.56 "Hg2 mi
6:30 AM84 °FScattered clouds.6 mph79%29.53 "Hg2 mi
6:00 AM84 °FPassing clouds.7 mph79%29.53 "Hg2 mi
5:30 AM84 °FPassing clouds.8 mph79%29.53 "Hg2 mi
5:00 AM84 °FPassing clouds.7 mph79%29.50 "Hg2 mi
4:30 AM84 °FPassing clouds.8 mph79%29.50 "Hg2 mi
4:00 AM84 °FPassing clouds.9 mph79%29.50 "Hg2 mi
3:30 AM84 °FPassing clouds.8 mph79%29.53 "Hg2 mi
3:00 AM86 °FPassing clouds.8 mph75%29.53 "Hg2 mi
2:30 AM86 °FHaze.7 mph75%29.53 "Hg2 mi
2:00 AM86 °FHaze.9 mph75%29.53 "Hg2 mi
1:30 AM86 °FPassing clouds.9 mph75%29.56 "Hg2 mi
1:00 AM86 °FPassing clouds.8 mph79%29.56 "Hg2 mi
12:30 AM88 °FPassing clouds.9 mph75%29.56 "Hg2 mi
12:00 AM88 °FPassing clouds.7 mph75%29.56 "Hg2 mi
11:30 PM
Thu, Jun 30
88 °FHaze.6 mph75%29.56 "Hg2 mi
11:00 PM88 °FHaze.10 mph75%29.56 "Hg2 mi
10:30 PM88 °FHaze.8 mph75%29.56 "Hg2 mi
10:00 PM90 °FHaze.12 mph67%29.56 "Hg2 mi
9:30 PM90 °FHaze.10 mph67%29.56 "Hg2 mi
9:00 PM91 °FPassing clouds.9 mph59%29.56 "Hg2 mi
8:30 PM91 °FPassing clouds.9 mph59%29.53 "Hg2 mi
8:00 PM91 °FPassing clouds.7 mph56%29.53 "Hg2 mi
7:00 PM93 °FPassing clouds.7 mph56%29.53 "Hg4 mi
6:30 PM95 °FScattered clouds.7 mph53%29.53 "Hg4 mi
6:00 PM95 °FScattered clouds.6 mph53%29.50 "Hg4 mi
4:30 PM97 °FScattered clouds.6 mph53%29.50 "Hg4 mi
3:30 PM95 °FScattered clouds.6 mph53%29.50 "Hg4 mi
3:00 PM93 °FScattered clouds.7 mph59%29.53 "Hg3 mi
2:30 PM93 °FBroken clouds.6 mph56%29.56 "Hg3 mi
2:00 PM93 °FBroken clouds.6 mph56%29.56 "Hg3 mi
1:30 PM91 °FBroken clouds.3 mph59%29.59 "Hg3 mi
1:00 PM91 °FPartly sunny.3 mph59%29.59 "Hg3 mi
Weather by CustomWeather, © 2016

See weather overviewHow to use our weather pages